User: anonymous   Login
Location: Campillo
(40.8621°N, 4.2488°W)
Time: 23:46:48
(UTC+00:00)
Language:

Cosmos 1782 - Orbit

View from above orbital plane
View from above orbital plane
View from above satellite
View from above satellite

Ground track
Ground track

The orbit data is extracted from the following two-line orbital elements,

1 16986U 86074A   21213.81490911  .00001176  00000-0  75321-4 0  9994
2 16986  82.5072  94.4339 0009390 234.8356 125.1993 15.07615786897774
Epoch (UTC): 01 August 2021 19:33:28
Eccentricity: 0.0009390
inclination: 82.5072°
perigee height: 537 km
apogee height: 550 km
right ascension of ascending node: 94.4339°
argument of perigee: 234.8356°
revolutions per day: 15.07615786
mean anomaly at epoch: 125.1993°
orbit number at epoch: 89777

The dashed part of the orbit path shows where the satellite is in the earth's shadow,  

DLR